Overview Statistics Trail Chart Weather Telemetry Raw packets
 

This is the latest recevied weather packets stored in our database for station/object KI5QCM-13. If no packets are shown the sender has not sent any weather packets the latest 10 day(s).

<< 9 10 11 12 13 14 15 >>
Time Temp. Humidity Pressure Rain* Wind** Luminosity Snow
1788279655 33.89° C 52% 1017.1 hPa 0 mm - 554 W/m² -
1788279078 33.89° C 54% 1017.2 hPa 0 mm - 600 W/m² -
1788278438 33.33° C 55% 1017.2 hPa 0 mm - 466 W/m² -
1788277862 32.78° C 56% 1017.1 hPa 0 mm - 421 W/m² -
1788277223 32.22° C 57% 1017.1 hPa 0 mm - 460 W/m² -
1788276647 31.67° C 58% 1017.1 hPa 0 mm - 352 W/m² -
1788276071 31.67° C 58% 1017.1 hPa 0 mm - 364 W/m² -
1788275479 31.67° C 59% 1017.1 hPa 0 mm - 484 W/m² -
1788274839 31.11° C 59% 1017.2 hPa 0 mm - 424 W/m² -
1788274263 30.56° C 61% 1017.2 hPa 0 mm - 361 W/m² -
1788273623 30° C 61% 1017.1 hPa 0 mm - 320 W/m² -
1788273063 29.44° C 63% 1017.2 hPa 0 mm - 244 W/m² -
1788272422 29.44° C 64% 1017.2 hPa 0 mm - 243 W/m² -
1788271831 28.33° C 65% 1017.2 hPa 0 mm - 169 W/m² -
1788271255 27.78° C 68% 1017.2 hPa 0 mm - 108 W/m² -
1788270647 27.22° C 69% 1017.2 hPa 0 mm - 76 W/m² -
1788270071 26.11° C 71% 1017.1 hPa 0 mm - 89 W/m² -
1788269431 25.56° C 72% 1017.2 hPa 0 mm - 71 W/m² -
1788268855 26.11° C 72% 1017.1 hPa 0 mm - 62 W/m² -
1788268278 25° C 73% 1017 hPa 0 mm - 63 W/m² -
1788267623 24.44° C 76% 1017 hPa 0 mm - 47 W/m² -
1788267046 23.89° C 77% 1017.1 hPa 0 mm - 38 W/m² -
1788266471 23.33° C 77% 1016.9 hPa 0 mm - 30 W/m² -
1788265879 22.78° C 81% 1016.8 hPa 0 mm - 22 W/m² -
1788265239 22.78° C 80% 1016.6 hPa 0 mm - 15 W/m² -

* Rain latest hour (hover to see other rain measurements)
** Current wind speed in m/s (hover to see current wind gust speed)